User: anonymous   Login
Location: Unspecified
(0.0000°N, 0.0000°E)
Time: 04:10:29
(UTC+00:00)
Language:

AEHF 2 (USA 235) - Orbit

View from above orbital plane
View from above orbital plane
View from above satellite
View from above satellite

Ground track
Ground track

The orbit data is extracted from the following two-line orbital elements,

1 38254U 12019A   18019.84626993 0.00000000  00000-0  00000-0 0    04
2 38254   1.5371 356.1044 0004763 119.4281 240.6373  1.00270000    05
Epoch (UTC): 19 January 2018 20:18:37
Eccentricity: 0.0004763
inclination: 1.5371°
perigee height: 35766 km
apogee height: 35807 km
right ascension of ascending node: 356.1044°
argument of perigee: 119.4281°
revolutions per day: 1.00270000
mean anomaly at epoch: 240.6373°
orbit number at epoch: 0

The dashed part of the orbit path shows where the satellite is in the earth's shadow,  

DLR